CW2433 Weather Reports


Display with metric or nautical units.
time (UTC)temp
F
wind
direction
speed
MPH
gust
MPH
rain 1hr
in
rain 24hr
in
rain mn
in
humidity
%
barometer
mb
20260901190509 92 152 2.0 9.0 0.00 0.00 0.00 54 1011.9
20260901190009 92 166 3.0 9.0 0.00 0.00 0.00 54 1011.8
20260901185509 92 140 2.0 7.0 0.00 0.00 0.00 55 1011.8
20260901185009 92 168 2.0 6.0 0.00 0.00 0.00 54 1011.7
20260901184509 92 166 1.0 7.0 0.00 0.00 0.00 55 1011.7
20260901183010 92 193 3.0 8.0 0.00 0.00 0.00 55 1011.8
20260901182509 92 215 3.0 8.0 0.00 0.00 0.00 54 1011.9
20260901182009 92 175 1.0 8.0 0.00 0.00 0.00 55 1012.0
20260901181509 92 174 2.0 7.0 0.00 0.00 0.00 53 1012.0
20260901181009 92 147 3.0 6.0 0.00 0.00 0.00 53 1012.1
20260901180509 92 188 3.0 6.0 0.00 0.00 0.00 53 1012.0
20260901180010 93 196 1.0 6.0 0.00 0.00 0.00 53 1012.1
20260901175509 93 189 3.0 6.0 0.00 0.00 0.00 52 1012.1
20260901175009 93 183 1.0 6.0 0.00 0.00 0.00 53 1012.2
20260901174510 93 188 2.0 6.0 0.00 0.00 0.00 53 1012.2
20260901174009 92 146 2.0 6.0 0.00 0.00 0.00 54 1012.2
20260901173509 92 148 1.0 6.0 0.00 0.00 0.00 54 1012.3
20260901173010 92 128 1.0 3.0 0.00 0.00 0.00 54 1012.4
20260901172510 92 123 1.0 5.0 0.00 0.00 0.00 54 1012.5
20260901172010 92 147 2.0 9.0 0.00 0.00 0.00 54 1012.5
20260901171510 91 175 2.0 9.0 0.00 0.00 0.00 54 1012.6
20260901171010 91 150 1.0 9.0 0.00 0.00 0.00 54 1012.6
20260901170509 91 158 1.0 5.0 0.00 0.00 0.00 52 1012.7
20260901170010 91 188 2.0 6.0 0.00 0.00 0.00 55 1012.5
20260901165510 91 170 1.0 6.0 0.00 0.00 0.00 54 1012.6
20260901165010 91 168 3.0 6.0 0.00 0.00 0.00 54 1012.6
20260901164510 90 158 2.0 6.0 0.00 0.00 0.00 55 1012.6
20260901164010 90 192 2.0 7.0 0.00 0.00 0.00 55 1012.7
20260901163510 89 158 3.0 7.0 0.00 0.00 0.00 55 1012.7
20260901163010 88 133 2.0 6.0 0.00 0.00 0.00 57 1012.8
20260901162510 88 150 2.0 5.0 0.00 0.00 0.00 58 1012.7
20260901162010 87 161 1.0 3.0 0.00 0.00 0.00 58 1012.8
20260901161010 86 203 1.0 3.0 0.00 0.00 0.00 60 1012.9
20260901160510 85 185 1.0 3.0 0.00 0.00 0.00 60 1012.8
20260901160010 85 180 1.0 3.0 0.00 0.00 0.00 61 1012.8
20260901154510 84 184 1.0 2.0 0.00 0.00 0.00 61 1012.7
20260901154010 83 184 0.0 3.0 0.00 0.00 0.00 62 1012.8
20260901153510 83 195 1.0 3.0 0.00 0.00 0.00 62 1012.8
20260901153009 83 160 0.0 2.0 0.00 0.00 0.00 62 1012.8
20260901152509 82 160 1.0 2.0 0.00 0.00 0.00 63 1012.8
20260901152009 82 222 0.0 2.0 0.00 0.00 0.00 62 1012.8
20260901151509 82 227 0.0 2.0 0.00 0.00 0.00 62 1012.8
20260901151009 82 286 1.0 2.0 0.00 0.00 0.00 65 1012.8
20260901150509 81 173 0.0 2.0 0.00 0.00 0.00 65 1012.9
20260901150009 81 173 0.0 2.0 0.00 0.00 0.00 68 1012.9
20260901145508 81 173 0.0 3.0 0.00 0.00 0.00 68 1012.9
20260901144509 80 173 1.0 3.0 0.00 0.00 0.00 71 1012.9
20260901144009 80 129 1.0 3.0 0.00 0.00 0.00 72 1012.9
20260901143509 80 148 1.0 5.0 0.00 0.00 0.00 72 1013.0
20260901143009 79 124 2.0 5.0 0.00 0.00 0.00 73 1013.1
20260901142509 79 169 2.0 5.0 0.00 0.00 0.00 73 1013.2
20260901142009 79 138 1.0 3.0 0.00 0.00 0.00 73 1013.3
20260901141509 78 140 1.0 5.0 0.00 0.00 0.00 74 1013.4
20260901141009 78 162 1.0 7.0 0.00 0.00 0.00 74 1013.3
20260901140509 78 138 2.0 7.0 0.00 0.00 0.00 74 1013.3
20260901140010 78 159 2.0 7.0 0.00 0.00 0.00 75 1013.3
20260901135509 77 137 2.0 6.0 0.00 0.00 0.00 75 1013.3
20260901135009 77 169 1.0 3.0 0.00 0.00 0.00 77 1013.3
20260901134509 77 130 1.0 8.0 0.00 0.00 0.00 78 1013.3
20260901133509 76 137 1.0 5.0 0.00 0.00 0.00 80 1013.4
20260901133010 76 160 1.0 3.0 0.00 0.00 0.00 80 1013.4
20260901132509 76 163 1.0 3.0 0.00 0.00 0.00 81 1013.5
20260901132009 76 143 0.0 3.0 0.00 0.00 0.00 82 1013.5
20260901131510 75 169 0.0 5.0 0.00 0.00 0.00 83 1013.5
20260901131009 75 138 1.0 5.0 0.00 0.00 0.00 83 1013.4
20260901130509 75 142 1.0 3.0 0.00 0.00 0.00 84 1013.4
20260901130010 75 151 0.0 2.0 0.00 0.00 0.00 85 1013.3
20260901125009 75 165 1.0 3.0 0.00 0.00 0.00 86 1013.2
20260901124510 75 164 1.0 3.0 0.00 0.00 0.00 86 1013.1
20260901123509 75 158 1.0 1.0 0.00 0.00 0.00 87 1012.9
20260901123010 75 133 0.0 1.0 0.00 0.00 0.00 87 1012.9
20260901122510 75 133 0.0 3.0 0.00 0.00 0.00 87 1012.8
20260901122009 75 133 0.0 3.0 0.00 0.00 0.00 87 1012.7
20260901121510 75 144 0.0 1.0 0.00 0.00 0.00 87 1012.5
20260901121010 75 144 0.0 3.0 0.00 0.00 0.00 87 1012.5
20260901120510 75 144 1.0 3.0 0.00 0.00 0.00 88 1012.5
20260901120010 75 148 0.0 2.0 0.00 0.00 0.00 88 1012.3
20260901115010 75 115 0.0 3.0 0.00 0.00 0.00 88 1012.3
20260901114510 75 115 0.0 3.0 0.00 0.00 0.00 88 1012.4
20260901114010 75 146 0.0 2.0 0.00 0.00 0.00 88 1012.4
20260901113510 75 146 0.0 3.0 0.00 0.00 0.00 88 1012.4
20260901113010 75 132 1.0 3.0 0.00 0.00 0.00 88 1012.4
20260901112510 75 134 0.0 2.0 0.00 0.00 0.00 89 1012.4
20260901112010 75 152 0.0 2.0 0.00 0.00 0.00 89 1012.5
20260901111510 75 127 0.0 3.0 0.00 0.00 0.00 89 1012.5
20260901111010 75 126 1.0 3.0 0.00 0.00 0.00 89 1012.5
20260901110510 75 138 1.0 3.0 0.00 0.00 0.00 89 1012.6
20260901105510 75 134 0.0 3.0 0.00 0.00 0.00 89 1012.5
20260901104509 75 153 0.0 2.0 0.00 0.00 0.00 89 1012.4
20260901104009 75 138 1.0 2.0 0.00 0.00 0.00 89 1012.4
20260901103509 75 138 0.0 1.0 0.00 0.00 0.00 89 1012.5
20260901103009 75 138 0.0 2.0 0.00 0.00 0.00 89 1012.6
20260901102509 75 138 0.0 3.0 0.00 0.00 0.00 90 1012.5
20260901102009 75 138 1.0 3.0 0.00 0.00 0.00 90 1012.5
20260901101509 75 161 1.0 3.0 0.00 0.00 0.00 90 1012.6
20260901101009 75 148 0.0 2.0 0.00 0.00 0.00 90 1012.7
20260901100509 75 148 0.0 1.0 0.00 0.00 0.00 90 1012.8
20260901095509 75 148 0.0 2.0 0.00 0.00 0.00 90 1012.8
20260901095009 75 148 0.0 2.0 0.00 0.00 0.00 90 1012.7
20260901094509 75 148 0.0 3.0 0.00 0.00 0.00 90 1012.7
20260901094009 75 152 0.0 3.0 0.00 0.00 0.00 90 1012.7
20260901093509 75 153 0.0 2.0 0.00 0.00 0.00 90 1012.7
20260901093012 75 153 1.0 2.0 0.00 0.00 0.00 90 1012.7
20260901092509 75 140 0.0 2.0 0.00 0.00 0.00 90 1012.7
20260901092009 75 141 1.0 2.0 0.00 0.00 0.00 90 1012.7
20260901091009 75 144 1.0 3.0 0.00 0.00 0.00 89 1012.7
20260901090509 75 344 0.0 1.0 0.00 0.00 0.00 89 1012.7
20260901090009 75 344 0.0 1.0 0.00 0.00 0.00 89 1012.7
20260901085509 75 344 0.0 0.0 0.00 0.00 0.00 89 1012.6
20260901085009 75 344 0.0 0.0 0.00 0.00 0.00 89 1012.6
20260901084509 75 344 0.0 0.0 0.00 0.00 0.00 89 1012.7
20260901084009 75 344 0.0 0.0 0.00 0.00 0.00 89 1012.6
20260901083509 76 344 0.0 0.0 0.00 0.00 0.00 89 1012.6
20260901083010 76 344 0.0 0.0 0.00 0.00 0.00 89 1012.6
20260901082509 76 344 0.0 0.0 0.00 0.00 0.00 89 1012.6
20260901082010 76 344 0.0 0.0 0.00 0.00 0.00 89 1012.6
20260901081509 76 344 0.0 0.0 0.00 0.00 0.00 89 1012.6
20260901081009 76 344 0.0 0.0 0.00 0.00 0.00 88 1012.7
20260901080509 76 344 0.0 0.0 0.00 0.00 0.00 88 1012.7
20260901075509 76 344 0.0 0.0 0.00 0.00 0.00 88 1012.8
20260901075009 76 344 0.0 0.0 0.00 0.00 0.00 88 1012.8
20260901074010 76 344 0.0 0.0 0.00 0.00 0.00 88 1012.8
20260901073509 76 344 0.0 0.0 0.00 0.00 0.00 87 1012.8
20260901073010 76 344 0.0 0.0 0.00 0.00 0.00 87 1012.9
20260901072510 76 344 0.0 1.0 0.00 0.00 0.00 87 1012.8
20260901072010 76 344 0.0 1.0 0.00 0.00 0.00 87 1012.9
20260901071510 76 344 0.0 0.0 0.00 0.00 0.00 87 1012.9
20260901071010 76 344 0.0 0.0 0.00 0.00 0.00 87 1013.1
20260901070010 77 344 0.0 0.0 0.00 0.00 0.00 87 1013.0
20260901065510 77 344 0.0 0.0 0.00 0.00 0.00 87 1013.0
20260901065010 77 344 0.0 0.0 0.00 0.00 0.00 87 1013.0
20260901064510 77 344 0.0 0.0 0.00 0.00 0.00 87 1013.0
20260901063510 77 344 0.0 3.0 0.00 0.00 0.00 87 1013.0
20260901063010 77 344 1.0 3.0 0.00 0.00 0.00 87 1013.1
20260901062010 78 330 1.0 5.0 0.00 0.00 0.00 87 1013.2
20260901061509 78 332 3.0 5.0 0.00 0.00 0.00 87 1013.2
20260901060509 78 5 0.0 2.0 0.00 0.00 0.00 86 1013.2
20260901060009 78 0 0.0 0.0 0.00 0.00 0.00 86 1013.2
20260901055509 78 5 0.0 0.0 0.00 0.00 0.00 86 1013.2
20260901055009 78 4 0.0 0.0 0.00 0.00 0.00 86 1013.2
20260901054509 78 0 0.0 0.0 0.00 0.00 0.00 85 1013.2
20260901054009 78 3 0.0 0.0 0.00 0.00 0.00 85 1013.2
20260901053509 78 5 0.0 0.0 0.00 0.00 0.00 85 1013.2
20260901053009 78 5 0.0 0.0 0.00 0.00 0.00 85 1013.2
20260901052509 78 0 0.0 0.0 0.00 0.00 0.00 85 1013.2
20260901052009 79 5 0.0 0.0 0.00 0.00 0.00 85 1013.2
20260901051509 79 5 0.0 0.0 0.00 0.00 0.00 85 1013.2
20260901051006 79 3 0.0 0.0 0.00 0.00 0.00 84 1013.1
20260901050509 79 0 0.0 0.0 0.00 0.00 0.00 84 1013.1
20260901045515 79 5 0.0 0.0 0.00 0.00 0.00 84 1013.3
20260901045009 79 5 0.0 0.0 0.00 0.00 0.00 84 1013.3
20260901044509 79 0 0.0 0.0 0.00 0.00 0.00 84 1013.3
20260901044009 79 5 0.0 0.0 0.00 0.00 0.00 84 1013.3
20260901043509 79 5 0.0 0.0 0.00 0.00 0.00 83 1013.2
20260901043009 79 0 0.0 0.0 0.00 0.00 0.00 83 1013.2
20260901042509 79 0 0.0 0.0 0.00 0.00 0.00 83 1013.1
20260901042009 80 0 0.0 0.0 0.00 0.00 0.00 83 1013.1
20260901041009 80 0 0.0 0.0 0.00 0.00 0.00 83 1013.2
20260901040509 80 5 0.0 0.0 0.00 0.00 0.00 82 1013.3
20260901040010 80 5 0.0 0.0 0.00 0.00 0.00 82 1013.4
20260901035510 80 5 0.0 0.0 0.00 0.00 0.00 82 1013.2
20260901035009 80 0 0.0 0.0 0.00 0.00 0.00 82 1013.0
20260901034510 80 0 0.0 0.0 0.00 0.00 0.00 82 1013.0
20260901034009 80 5 0.0 0.0 0.00 0.00 0.00 82 1012.9
20260901033509 80 0 0.0 0.0 0.00 0.00 0.00 82 1012.9
20260901032510 81 3 0.0 0.0 0.00 0.00 0.00 81 1012.9
20260901031510 81 3 0.0 0.0 0.00 0.00 0.00 81 1012.9
20260901030510 81 3 0.0 0.0 0.00 0.00 0.00 81 1012.9
20260901030010 82 3 0.0 0.0 0.00 0.00 0.00 80 1012.9
20260901025510 82 4 0.0 0.0 0.00 0.00 0.00 79 1012.9
20260901025010 82 0 0.0 0.0 0.00 0.00 0.00 80 1012.8
20260901024010 82 5 0.0 0.0 0.00 0.00 0.00 80 1012.7
20260901023510 82 3 0.0 0.0 0.00 0.00 0.00 79 1012.6
20260901023010 83 5 0.0 1.0 0.00 0.00 0.00 79 1012.5
20260901022509 83 3 0.0 1.0 0.00 0.00 0.00 79 1012.6
20260901022010 83 5 0.0 0.0 0.00 0.00 0.00 78 1012.5
20260901021510 83 3 0.0 0.0 0.00 0.00 0.00 77 1012.4
20260901021010 83 0 0.0 0.0 0.00 0.00 0.00 77 1012.3
20260901015509 84 5 0.0 1.0 0.00 0.00 0.00 75 1012.3
20260901015009 84 5 0.0 0.0 0.00 0.00 0.00 75 1012.3
20260901014509 84 5 0.0 0.0 0.00 0.00 0.00 75 1012.2
20260901013509 84 5 0.0 0.0 0.00 0.00 0.00 74 1012.2
20260901013009 85 5 0.0 1.0 0.00 0.00 0.00 74 1012.2
20260901012509 85 0 0.0 1.0 0.00 0.00 0.00 74 1012.0
20260901011509 85 5 1.0 1.0 0.00 0.00 0.00 73 1012.1
20260901010509 86 0 0.0 0.0 0.00 0.00 0.00 71 1012.2
20260901010009 86 0 0.0 0.0 0.00 0.00 0.00 71 1012.2
20260901005509 86 5 0.0 0.0 0.00 0.00 0.00 70 1012.2
20260901005009 87 5 0.0 0.0 0.00 0.00 0.00 70 1012.2
20260901004509 87 0 0.0 0.0 0.00 0.00 0.00 69 1012.2
20260901004010 87 5 0.0 0.0 0.00 0.00 0.00 69 1012.2
20260901003510 88 5 0.0 0.0 0.00 0.00 0.00 69 1012.2
20260901003010 88 5 0.0 1.0 0.00 0.00 0.00 69 1012.2
20260901002509 88 3 0.0 1.0 0.00 0.00 0.00 69 1012.1
20260901002009 88 5 0.0 1.0 0.00 0.00 0.00 69 1012.1
20260901001009 88 3 0.0 1.0 0.00 0.00 0.00 67 1012.2
20260901000509 88 3 0.0 0.0 0.00 0.00 0.00 68 1012.2
20260901000009 89 4 0.0 0.0 0.00 0.00 0.00 67 1012.2
20260831235009 89 5 0.0 3.0 0.00 0.00 0.00 67 1012.2
20260831234510 89 3 1.0 3.0 0.00 0.00 0.00 67 1012.1
20260831233509 89 24 0.0 2.0 0.00 0.00 0.00 66 1012.2
20260831232009 89 38 1.0 3.0 0.00 0.00 0.00 64 1012.2
20260831231510 89 346 0.0 2.0 0.00 0.00 0.00 64 1012.2
20260831231010 90 345 0.0 2.0 0.00 0.00 0.00 64 1012.2
20260831230510 90 262 0.0 1.0 0.00 0.00 0.00 64 1012.2
20260831230010 90 262 0.0 1.0 0.00 0.00 0.00 63 1012.1
20260831225509 90 262 0.0 1.0 0.00 0.00 0.00 62 1012.2
20260831225009 90 261 0.0 1.0 0.00 0.00 0.00 62 1012.2
20260831224510 91 261 0.0 2.0 0.00 0.00 0.00 62 1012.1
20260831224010 91 261 0.0 2.0 0.00 0.00 0.00 62 1012.1
20260831223510 91 261 1.0 2.0 0.00 0.00 0.00 62 1012.1
20260831223010 91 262 0.0 3.0 0.00 0.00 0.00 61 1012.1
20260831222510 91 263 1.0 3.0 0.00 0.00 0.00 61 1012.1
20260831222010 91 223 1.0 2.0 0.00 0.00 0.00 60 1012.1
20260831221510 91 223 0.0 2.0 0.00 0.00 0.00 59 1012.1
20260831221010 91 245 0.0 1.0 0.00 0.00 0.00 60 1012.1
20260831220510 91 246 0.0 1.0 0.00 0.00 0.00 58 1012.1
20260831220010 92 246 0.0 1.0 0.00 0.00 0.00 58 1012.1
20260831215010 92 245 1.0 2.0 0.00 0.00 0.00 57 1012.1
20260831214513 92 275 1.0 2.0 0.00 0.00 0.00 57 1012.1
20260831214010 92 252 1.0 3.0 0.00 0.00 0.00 58 1012.1
20260831213510 92 235 1.0 3.0 0.00 0.00 0.00 58 1012.1
20260831213010 92 237 1.0 3.0 0.00 0.00 0.00 59 1012.2
20260831212510 92 252 0.0 3.0 0.00 0.00 0.00 57 1012.1
20260831211510 93 236 0.0 2.0 0.00 0.00 0.00 57 1012.1
20260831211010 93 219 0.0 2.0 0.00 0.00 0.00 59 1012.1
20260831205509 93 213 1.0 3.0 0.00 0.00 0.00 60 1012.0
20260831205009 92 213 1.0 3.0 0.00 0.00 0.00 62 1012.1
20260831204509 92 253 2.0 3.0 0.00 0.00 0.00 61 1012.2
20260831204009 92 191 1.0 3.0 0.00 0.00 0.00 62 1012.3
20260831203510 91 225 1.0 3.0 0.00 0.00 0.00 62 1012.4
20260831203009 91 196 0.0 3.0 0.00 0.00 0.00 61 1012.5
20260831202509 91 207 2.0 3.0 0.00 0.00 0.00 60 1012.5
20260831202010 91 218 1.0 3.0 0.00 0.00 0.00 60 1012.5
20260831201009 91 157 1.0 3.0 0.00 0.00 0.00 60 1012.5
20260831200509 91 143 1.0 2.0 0.00 0.00 0.00 61 1012.4
20260831200009 90 252 0.0 3.0 0.00 0.00 0.00 60 1012.4
20260831195009 90 125 0.0 3.0 0.00 0.00 0.00 60 1012.5
20260831194512 90 132 1.0 3.0 0.00 0.00 0.00 61 1012.6
20260831194009 90 267 0.0 3.0 0.00 0.00 0.00 60 1012.5
20260831193509 90 230 1.0 3.0 0.00 0.00 0.00 61 1012.5
20260831193009 90 247 1.0 3.0 0.00 0.00 0.00 61 1012.5
20260831191510 90 252 2.0 5.0 0.00 0.00 0.00 62 1012.4
20260831191009 89 252 1.0 3.0 0.00 0.00 0.00 63 1012.4